Tracking 25701 objects as of 3-Jul-2022
HD Live streaming from Space Station
objects crossing your sky now

FENGYUN 1C DEB

Track FENGYUN 1C DEB now!
10-day predictions


NORAD ID: 37908
Int'l Code: 1999-025ENH
Perigee: 740.8 km
Apogee: 856.5 km
Inclination: 99.1 °
Period: 100.7 minutes
Semi major axis: 7169 km
RCS: 0.0082 m2 (small)
Launch date: May 10, 1999
Source: People's Republic of China (PRC)
Launch site: Taiyaun Space Center, China (TSC)

Note: This is SATELLITE DEBRIS
aabbcc
Your satellite tracking list
Your tracking list is empty




NASA's NSSDC Master Catalog

Two Line Element Set (TLE):
1 37908U 99025ENH 22183.11320285  .00000356  00000-0  15127-3 0  9993
2 37908  99.0875 128.9293 0080700 216.4912 143.0753 14.30058244460207
Source of the keplerian elements: AFSPC